Flag for Isle of Man Weather past 2 weeks in Douglas, Isle of Man

Now
57 °F

Scattered clouds.


Feels Like: 54 °F
Forecast: 51 / 59 °F
Wind: 14 mph from Northwest

Location: Isle Of Man / Ronaldsway Airport

Current Time: Aug 23, 2014 at 12:27:43 PM

Latest Report: Aug 23, 2014 at 11:50 AM


Visibility: N/A

Pressure: 29.98 "Hg

Humidity: 63%

Dew point: 45 °F

Location of DouglasLocation

Historic Weather in Douglas — Graph

°F

Douglas temperature yesterday

Maximum temperature yesterday: 59 °F (at 1:20 PM)
Minimum temperature yesterday: 52 °F (at 7:20 AM)
Average temperature yesterday: 55 °F

Past Weeks' High & Low Weather Summary

 TemperatureHumidityPressure
High64 °F (Aug 11, 12:50 PM)100% (Aug 9, 2:50 AM)30.15 "Hg (Aug 9, 2:50 AM)
Low50 °F (Aug 19, 5:20 AM)48% (Aug 19, 2:50 PM)29.27 "Hg (Aug 10, 2:20 PM)
Average57 °F76%29.77 "Hg
* Reported Aug 8 11:20 AM — Aug 23 11:20 AM, Douglas, Weather by CustomWeather, © 2014

Note: Actual official high and low records may vary slightly from our data, if they occured in-between our weather recording intervals... More about our weather records

Advertising

Douglas weather history for previous 24 hours

 ConditionsComfort  
Time TempWeatherWind HumidityBarometerVisibility
11:20 AM
Aug 23
57 °FScattered showers. Scattered clouds.13 mph67%29.98 "HgN/A
10:50 AM55 °FScattered showers. Scattered clouds.15 mph77%29.98 "HgN/A
10:20 AM57 °FScattered clouds.17 mph67%29.98 "HgN/A
9:50 AM57 °FScattered clouds.13 mph72%29.95 "HgN/A
9:20 AM55 °FScattered clouds.14 mph77%29.95 "HgN/A
8:50 AM54 °FScattered clouds.16 mph82%29.95 "HgN/A
8:20 AM54 °FScattered clouds.15 mph82%29.95 "HgN/A
7:50 AM54 °FPassing clouds.15 mph82%29.95 "HgN/A
7:20 AM52 °FScattered clouds.12 mph88%29.92 "HgN/A
6:50 AM52 °FPassing clouds.10 mph88%29.92 "HgN/A
6:20 AM52 °FPassing clouds.10 mph88%29.92 "HgN/A
5:50 AM52 °FPassing clouds.10 mph82%29.92 "HgN/A
5:20 AM52 °FPassing clouds.9 mph82%29.92 "HgN/A
4:50 AM52 °FPassing clouds.9 mph82%29.92 "HgN/A
3:50 AM52 °FPassing clouds.13 mph82%29.92 "HgN/A
2:50 AM52 °FPassing clouds.9 mph82%29.92 "HgN/A
1:50 AM52 °FPassing clouds.10 mph82%29.92 "HgN/A
12:50 AM52 °FPassing clouds.9 mph77%29.92 "HgN/A
11:50 PM
Aug 22
54 °FPassing clouds.10 mph67%29.92 "HgN/A
10:50 PM54 °FPassing clouds.9 mph72%29.95 "HgN/A
9:50 PM52 °FPassing clouds.7 mph77%29.92 "HgN/A
8:50 PM54 °FPassing clouds.7 mph72%29.92 "HgN/A
8:20 PM54 °FPassing clouds.8 mph72%29.92 "HgN/A
7:50 PM55 °FPassing clouds.8 mph67%29.92 "HgN/A
7:20 PM55 °FPassing clouds.10 mph67%29.92 "HgN/A
6:50 PM57 °FPassing clouds.9 mph63%29.92 "HgN/A
6:20 PM57 °FPassing clouds.12 mph63%29.92 "HgN/A
5:50 PM57 °FPassing clouds.13 mph59%29.92 "HgN/A
5:20 PM57 °FPassing clouds.9 mph59%29.92 "HgN/A
4:50 PM57 °FPassing clouds.13 mph63%29.92 "HgN/A
4:20 PM57 °FPassing clouds.17 mph63%29.92 "HgN/A
3:50 PM59 °FScattered clouds.13 mph55%29.89 "HgN/A
3:20 PM59 °FPassing clouds.16 mph55%29.89 "HgN/A
2:50 PM59 °FScattered clouds.16 mph59%29.89 "HgN/A
2:20 PM59 °FScattered clouds.15 mph59%29.89 "HgN/A
1:50 PM59 °FScattered clouds.17 mph59%29.89 "HgN/A
1:20 PM59 °FScattered clouds.17 mph59%29.89 "HgN/A
12:50 PM57 °FScattered clouds.18 mph63%29.89 "HgN/A
12:20 PM57 °FScattered clouds.16 mph63%29.89 "HgN/A
Weather by CustomWeather, © 2014

See weather overviewHow to use our weather pages